Le nostre stazioni meteo in Italia

Pubblicità
Il mio iltempo24.it
Bournemouth Airport, Gran Bretagna (3862): Temperatura & dewpoint: 16.11.2019 07:00:00 - 22.11.2019 07:00:00 (GMT)Bournemouth Airport, Gran Bretagna (3862): Temperatura -20cm & Temperatura -100cm: 16.11.2019 07:00:00 - 22.11.2019 07:00:00 (GMT)Bournemouth Airport, Gran Bretagna (3862): velocità del vento: 16.11.2019 07:00:00 - 22.11.2019 07:00:00 (GMT)Bournemouth Airport, Gran Bretagna (3862): direzione del vento: 16.11.2019 07:00:00 - 22.11.2019 07:00:00 (GMT)Bournemouth Airport, Gran Bretagna (3862): reduced air pressure: 16.11.2019 07:00:00 - 22.11.2019 07:00:00 (GMT)Bournemouth Airport, Gran Bretagna (3862): visibility: 16.11.2019 07:00:00 - 22.11.2019 07:00:00 (GMT)Bournemouth Airport, Gran Bretagna (3862): ore di luce: 16.11.2019 07:00:00 - 22.11.2019 07:00:00 (GMT)Bournemouth Airport, Gran Bretagna (3862): precipitazioni: 16.11.2019 07:00:00 - 22.11.2019 07:00:00 (GMT)
Data & Tempo tt [°C] td [°C] tt -20cm [°C] tt -100cm [°C] ff [km/h] ff [kn] dd ppp [hPa] vv [km] sd [min] rr [mm]
22.11.2019 07:00:00 7,0 6,0 - - 11 6 ESE - 10 - -
22.11.2019 06:00:00 7,5 5,6 - - 9 5 SE 994,2 - 0 0,6
22.11.2019 05:00:00 9,7 7,2 - - 15 8 S 994,0 - 0 0,0
22.11.2019 04:00:00 9,3 7,0 - - 21 11 S 994,1 - 0 0,6
22.11.2019 03:00:00 8,0 6,1 - - 15 8 S 994,5 - 0 2,2
22.11.2019 02:00:00 9,7 7,0 - - 18 10 S 994,5 - 0 0,0
22.11.2019 01:00:00 9,7 6,9 - - 18 10 S 994,8 - 0 0,0
22.11.2019 00:00:00 9,4 6,9 - - 22 12 S 995,1 - - 0,0
21.11.2019 23:00:00 9,6 7,5 - - 16 9 S 995,3 - 0 0,0
21.11.2019 22:00:00 9,8 7,7 - - 18 10 SSE 996,0 - 0 0,0
21.11.2019 21:00:00 9,4 7,1 - - 16 9 SSE 996,5 10 0 0,0
21.11.2019 20:00:00 9,2 7,3 - - 16 9 SSE 996,8 10 0 0,0
21.11.2019 19:00:00 9,0 8,0 - - 21 11 S 997,0 6 0 0,4
21.11.2019 18:00:00 8,8 8,3 - - 11 6 SE 997,3 6 0 3,4
21.11.2019 17:00:00 8,6 7,9 - - 16 9 ESE 997,6 4,0 0 1,8
21.11.2019 16:00:00 8,3 7,5 - - 16 9 ESE 998,0 3,0 0 1,4
21.11.2019 15:00:00 8,4 7,0 - - 21 11 ESE 998,1 1,8 0 0,4
21.11.2019 14:00:00 8,8 6,2 - - 18 10 E 998,6 10 0 0,0
21.11.2019 13:00:00 8,7 5,4 - - 21 11 ESE 999,4 10 0 0,0
21.11.2019 12:00:00 8,9 5,5 - - 21 11 E 1000,2 10 6 0,0
21.11.2019 11:00:00 8,8 5,5 - - 24 13 ESE 1001,0 10 0 0,0
21.11.2019 10:00:00 8,3 5,2 - - 18 10 ESE 1001,7 10 0 0,0
21.11.2019 09:00:00 7,5 4,7 7,2 8,9 15 8 ESE 1002,1 10 0 0,0
21.11.2019 08:00:00 6,5 3,5 - - 15 8 E 1002,1 10 0 0,0
21.11.2019 07:00:00 6,5 4,9 - - 13 7 E 1002,4 10 0 0,0
21.11.2019 06:00:00 5,6 3,8 - - 11 6 E 1002,5 10 0 0,0
21.11.2019 05:00:00 6,5 3,7 - - 13 7 E 1002,9 - 0 0,0
21.11.2019 04:00:00 6,6 4,4 - - 16 9 E 1003,2 - 0 0,0
21.11.2019 03:00:00 5,3 3,8 - - 11 6 E 1003,7 - 0 0,0
21.11.2019 02:00:00 6,8 3,9 - - 15 8 E 1004,1 - 0 0,0
21.11.2019 01:00:00 7,0 4,0 - - 16 9 ESE 1004,5 - 0 0,0
21.11.2019 00:00:00 7,2 3,9 - - 15 8 ESE 1005,0 - - 0,0
20.11.2019 23:00:00 7,4 3,7 - - 16 9 ESE 1005,5 - 0 0,0
20.11.2019 22:00:00 7,7 3,8 - - 18 10 ESE 1005,8 - 0 0,0
20.11.2019 21:00:00 8,4 3,4 - - 21 11 SE 1006,2 10 0 0,0
20.11.2019 20:00:00 8,4 3,2 - - 22 12 SE 1006,4 10 0 0,0
20.11.2019 19:00:00 8,6 3,8 - - 21 11 SE 1006,5 10 0 0,0
20.11.2019 18:00:00 7,7 3,5 - - 18 10 ESE 1006,7 10 0 0,0
20.11.2019 17:00:00 7,3 2,9 - - 16 9 ESE 1006,9 10 0 0,0
20.11.2019 16:00:00 7,6 2,6 - - 22 12 ESE 1007,5 10 0 0,0
20.11.2019 15:00:00 7,8 2,5 - - 21 11 ESE 1008,0 10 0 0,0
20.11.2019 14:00:00 7,9 2,2 - - 24 13 ESE 1008,7 10 0 0,0
20.11.2019 13:00:00 7,8 1,7 - - 28 15 ESE 1009,5 10 0 0,0
20.11.2019 12:00:00 7,8 1,6 - - 26 14 ESE 1010,1 10 0 0,0
20.11.2019 11:00:00 8,1 2,3 - - 24 13 SE 1010,9 10 0 0,0
20.11.2019 10:00:00 8,2 1,9 - - 28 15 SE 1011,4 10 0 0,0
20.11.2019 09:00:00 8,2 2,4 6,7 9,0 22 12 SSE 1011,8 10 0 0,0
20.11.2019 08:00:00 8,4 3,0 - - 24 13 SSE 1011,8 10 0 0,0
20.11.2019 07:00:00 8,4 3,4 - - 21 11 SSE 1011,7 10 0 0,0
20.11.2019 06:00:00 8,4 3,4 - - 18 10 SSE 1011,9 10 0 0,0
20.11.2019 05:00:00 8,7 4,0 - - 22 12 SSE 1012,0 - 0 0,0
20.11.2019 04:00:00 9,3 5,6 - - 21 11 SSE 1012,2 - 0 0,0
20.11.2019 03:00:00 9,8 6,7 - - 18 10 SSE 1012,4 - 0 0,0
20.11.2019 02:00:00 9,7 6,5 - - 18 10 SSE 1012,7 - 0 0,0
20.11.2019 01:00:00 10,0 6,3 - - 18 10 S 1013,1 - 0 0,0
20.11.2019 00:00:00 9,9 6,4 - - 16 9 S 1013,6 - - 0,0
19.11.2019 23:00:00 9,9 5,9 - - 18 10 S 1013,9 - 0 0,0
19.11.2019 22:00:00 10,0 6,0 - - 21 11 S 1014,1 - 0 0,0
19.11.2019 21:00:00 9,9 5,8 - - 21 11 S 1014,2 10 0 0,0
19.11.2019 20:00:00 9,9 6,0 - - 21 11 S 1014,4 10 0 0,0
19.11.2019 19:00:00 9,9 6,0 - - 16 9 S 1014,4 10 0 0,0
19.11.2019 18:00:00 10,0 6,2 - - 16 9 S 1014,6 10 0 0,0
19.11.2019 17:00:00 9,8 5,1 - - 15 8 S 1014,5 10 0 0,0
19.11.2019 16:00:00 10,1 5,0 - - 18 10 SSE 1014,5 10 0 0,0
19.11.2019 15:00:00 9,9 5,8 - - 16 9 S 1014,6 10 0 0,0
19.11.2019 14:00:00 10,2 6,6 - - 16 9 S 1014,8 10 0 0,0
19.11.2019 13:00:00 10,1 7,7 - - 15 8 SSO 1015,2 10 0 0,0
19.11.2019 12:00:00 6,0 5,7 - - 4 2 - 1015,6 7 0 0,0
19.11.2019 11:00:00 3,8 3,6 - - 0 0 N 1016,2 6 0 0,2
19.11.2019 10:00:00 2,2 2,0 - - 2 1 N 1016,6 4,6 0 0,0
19.11.2019 09:00:00 0,1 -0,2 6,7 9,2 0 0 N 1016,8 6 0 0,0
19.11.2019 08:00:00 -1,1 -1,3 - - 4 2 - 1016,7 6 0 0,0
19.11.2019 07:00:00 -2,4 -2,8 - - 4 2 ONO 1016,6 7 0 0,0
19.11.2019 06:00:00 -3,2 -3,6 - - 0 0 N 1016,3 7 0 0,0
19.11.2019 05:00:00 -3,1 -3,5 - - 0 0 N 1016,6 - 0 0,0
19.11.2019 04:00:00 -3,2 -3,7 - - 2 1 N 1017,1 - 0 0,0
19.11.2019 03:00:00 -3,4 -3,8 - - 0 0 N 1017,5 - 0 0,0
19.11.2019 02:00:00 -3,0 -3,3 - - 4 2 N 1017,9 - 0 0,0
19.11.2019 01:00:00 -2,3 -2,7 - - 4 2 N 1017,8 - 0 0,0
19.11.2019 00:00:00 -2,6 -2,9 - - 4 2 NO 1018,1 - - 0,0
18.11.2019 23:00:00 -2,4 -2,8 - - 2 1 NO 1018,3 - 0 0,0
18.11.2019 22:00:00 -1,6 -2,2 - - 5 3 NE 1018,2 - 0 0,0
18.11.2019 21:00:00 -0,9 -1,5 - - 2 1 NO 1018,5 10 0 0,0
18.11.2019 20:00:00 0,1 -0,7 - - 2 1 OSO 1018,5 9 0 0,0
18.11.2019 19:00:00 1,4 0,6 - - 4 2 NO 1018,3 10 0 0,0
18.11.2019 18:00:00 1,5 0,0 - - 9 5 O 1017,8 10 0 0,0
18.11.2019 17:00:00 4,2 1,4 - - 8 4 NNO 1017,6 10 0 0,0
18.11.2019 16:00:00 6,9 3,0 - - 11 6 NO 1017,4 - 36 0,0
18.11.2019 15:00:00 8,2 3,2 - - 15 8 NNO 1017,1 10 54 0,0
18.11.2019 14:00:00 8,9 3,8 - - 18 10 N 1016,9 10 60 0,0
18.11.2019 13:00:00 8,9 2,8 - - 22 12 N 1016,8 10 60 0,0
18.11.2019 12:00:00 8,8 4,0 - - 22 12 N 1016,6 10 60 0,0
18.11.2019 11:00:00 7,7 3,9 - - 15 8 N 1016,9 10 54 0,0
18.11.2019 10:00:00 6,6 4,6 - - 13 7 NNO 1017,6 10 60 0,0
18.11.2019 09:00:00 4,6 3,9 7,2 9,2 13 7 NO 1017,5 10 24 0,0
18.11.2019 08:00:00 2,4 1,8 - - 13 7 NO 1017,2 10 0 0,0
18.11.2019 07:00:00 2,7 1,8 - - 11 6 NNO 1016,4 10 0 0,0
18.11.2019 06:00:00 4,1 3,0 - - 15 8 NNO 1016,1 10 0 0,0
18.11.2019 05:00:00 4,8 3,2 - - 13 7 N 1015,5 - 0 0,0
18.11.2019 04:00:00 7,1 5,3 - - 18 10 N 1015,4 - 0 0,0
18.11.2019 03:00:00 7,1 6,0 - - 13 7 N 1014,9 - 0 0,0
18.11.2019 02:00:00 6,9 6,4 - - 9 5 NNO 1014,7 - 0 0,0
18.11.2019 01:00:00 6,1 5,8 - - 9 5 NNO 1014,3 - 0 0,0
18.11.2019 00:00:00 4,2 3,9 - - 5 3 NNO 1014,2 - - 0,0
17.11.2019 23:00:00 2,3 1,8 - - 0 0 N 1013,9 - 0 0,0
17.11.2019 22:00:00 3,3 2,5 - - 8 4 NNO 1013,8 1,1 0 0,0
17.11.2019 21:00:00 6,1 5,5 - - 9 5 N 1013,7 2,0 0 0,0
17.11.2019 20:00:00 6,0 5,5 - - 8 4 NE 1013,5 5 0 0,0
17.11.2019 19:00:00 4,3 3,5 - - 8 4 NNE 1012,9 4,3 0 0,0
17.11.2019 18:00:00 5,7 5,1 - - 9 5 NNO 1012,5 6 0 0,0
17.11.2019 17:00:00 6,6 5,1 - - 5 3 N 1012,2 10 0 0,0
17.11.2019 16:00:00 7,6 5,1 - - 8 4 - 1011,8 10 0 0,0
17.11.2019 15:00:00 8,5 5,0 - - 13 7 N 1011,5 10 0 0,0
17.11.2019 14:00:00 9,0 4,9 - - 13 7 NNE 1011,3 10 18 0,0
17.11.2019 13:00:00 9,3 5,3 - - 5 3 ONO 1011,2 3,2 42 0,0
17.11.2019 12:00:00 6,9 4,5 - - 9 5 NNO 1010,9 10 42 0,0
17.11.2019 11:00:00 3,6 3,3 - - 8 4 NNO 1011,3 8 0 0,0
17.11.2019 10:00:00 1,4 1,1 - - 5 3 ONO 1011,1 5 0 0,0
17.11.2019 09:00:00 -0,2 -0,4 7,4 9,5 0 0 N 1010,8 4,0 0 0,0
17.11.2019 08:00:00 -2,5 -2,6 - - 4 2 NO 1010,6 4,0 0 0,0
17.11.2019 07:00:00 -1,2 -1,3 - - 2 1 N 1009,9 2,3 0 0,0
17.11.2019 06:00:00 -2,2 -2,4 - - 5 3 O 1009,8 0,5 0 0,0
17.11.2019 05:00:00 -1,9 -2,1 - - 4 2 NO 1009,3 2,3 0 0,0
17.11.2019 04:00:00 -1,7 -1,9 - - 4 2 N 1009,3 3,3 0 0,0
17.11.2019 03:00:00 -1,7 -1,9 - - 2 1 NNO 1009,0 1,3 0 0,0
17.11.2019 02:00:00 -1,0 -1,3 - - 4 2 NO 1009,1 1,3 0 0,0
17.11.2019 01:00:00 -0,6 -0,9 - - 5 3 N 1009,4 0,9 0 0,0
17.11.2019 00:00:00 1,1 0,8 - - 2 1 N 1009,2 0,1 - 0,0
16.11.2019 23:00:00 1,3 1,1 - - 4 2 NO 1009,0 2,4 0 0,0
16.11.2019 22:00:00 0,6 0,1 - - 8 4 N 1008,8 1,3 0 0,0
16.11.2019 21:00:00 1,7 1,0 - - 0 0 N 1008,8 1,5 0 0,0
16.11.2019 20:00:00 3,3 2,5 - - 0 0 N 1008,6 9 0 0,0
16.11.2019 19:00:00 4,7 2,7 - - 2 1 ESE 1008,2 12 0 0,0
16.11.2019 18:00:00 5,8 4,1 - - 4 2 NE 1007,9 10 0 0,0
16.11.2019 17:00:00 6,7 3,6 - - 4 2 N 1007,7 30 0 0,0
16.11.2019 16:00:00 7,2 3,8 - - 8 4 N 1007,3 10 0 0,0
16.11.2019 15:00:00 7,7 3,5 - - 11 6 N 1007,1 10 0 0,0
16.11.2019 14:00:00 8,1 3,2 - - 8 4 ENE 1006,9 45 6 0,0
16.11.2019 13:00:00 7,7 3,6 - - 11 6 ENE 1006,5 10 42 0,0
16.11.2019 12:00:00 7,7 3,5 - - 15 8 ENE 1006,4 10 42 0,0
16.11.2019 11:00:00 7,6 4,8 - - 16 9 NE 1006,3 10 54 0,0
16.11.2019 10:00:00 6,4 4,5 - - 15 8 NNE 1006,3 10 54 0,0
16.11.2019 09:00:00 5,2 3,8 7,7 9,7 11 6 NE 1005,7 10 18 0,0
16.11.2019 08:00:00 4,2 3,2 - - 18 10 N 1005,1 10 0 0,0
16.11.2019 07:00:00 4,2 2,6 - - 15 8 NNE 1004,7 23 0 0,0

tt = Temperatura
td = dewpoint
tt -20cm = Temperatura -20cm
tt -100cm = Temperatura -100cm
ff = velocità del vento
dd = direzione del vento
ppp = reduced air pressure
vv = visibility
sd = ore di luce
rr = precipitazioni

Stazioni seguenti

WeatherPro
AMSI
MeteoEarth